TimeMDT,TemperatureF,Dew PointF,Humidity,Sea Level PressureIn,VisibilityMPH,Wind Direction,Wind SpeedMPH,Gust SpeedMPH,PrecipitationIn,Events,Conditions,WindDirDegrees,DateUTC
12:15 AM,50.2,41.4,72,30.36,10.0,Calm,Calm,-,N/A,,Clear,0,2013-09-20 06:15:00
12:35 AM,49.3,40.3,71,30.36,10.0,Calm,Calm,-,N/A,,Scattered Clouds,0,2013-09-20 06:35:00
12:55 AM,48.0,41.0,77,30.36,10.0,Calm,Calm,-,N/A,,Scattered Clouds,0,2013-09-20 06:55:00
1:15 AM,47.3,41.0,79,30.37,10.0,Calm,Calm,-,N/A,,Mostly Cloudy,0,2013-09-20 07:15:00
1:35 AM,48.9,43.7,82,30.37,10.0,Calm,Calm,-,N/A,,Scattered Clouds,0,2013-09-20 07:35:00
1:55 AM,48.6,43.9,84,30.37,10.0,Calm,Calm,-,N/A,,Scattered Clouds,0,2013-09-20 07:55:00
2:15 AM,48.6,43.0,81,30.37,10.0,Calm,Calm,-,N/A,,Overcast,0,2013-09-20 08:15:00
2:35 AM,49.6,44.1,81,30.37,10.0,Calm,Calm,-,N/A,,Mostly Cloudy,0,2013-09-20 08:35:00
2:55 AM,49.8,44.6,82,30.37,10.0,Calm,Calm,-,N/A,,Mostly Cloudy,0,2013-09-20 08:55:00
3:15 AM,51.8,45.5,79,30.37,10.0,Calm,Calm,-,N/A,,Overcast,0,2013-09-20 09:15:00
3:35 AM,50.5,45.5,83,30.37,10.0,Calm,Calm,-,N/A,,Overcast,0,2013-09-20 09:35:00
3:55 AM,50.0,45.1,83,30.37,10.0,Calm,Calm,-,N/A,,Overcast,0,2013-09-20 09:55:00
4:15 AM,49.1,42.8,79,30.37,10.0,SW,4.6,-,N/A,,Overcast,230,2013-09-20 10:15:00
4:35 AM,49.1,42.4,78,30.37,10.0,WSW,3.5,-,N/A,,Overcast,250,2013-09-20 10:35:00
4:55 AM,49.3,42.6,78,30.37,10.0,WSW,3.5,-,N/A,,Overcast,240,2013-09-20 10:55:00
5:15 AM,49.1,41.4,75,30.37,10.0,NW,4.6,-,N/A,,Mostly Cloudy,310,2013-09-20 11:15:00
5:35 AM,48.7,41.0,75,30.37,10.0,WNW,4.6,-,N/A,,Scattered Clouds,300,2013-09-20 11:35:00
5:55 AM,47.7,41.7,80,30.37,10.0,West,3.5,-,N/A,,Scattered Clouds,280,2013-09-20 11:55:00
6:15 AM,46.0,39.4,78,30.37,10.0,WSW,6.9,-,N/A,,Scattered Clouds,250,2013-09-20 12:15:00
6:35 AM,45.0,38.7,79,30.38,10.0,WSW,5.8,-,N/A,,Scattered Clouds,240,2013-09-20 12:35:00
6:55 AM,44.6,38.5,79,30.38,10.0,WSW,6.9,-,N/A,,Mostly Cloudy,240,2013-09-20 12:55:00
7:15 AM,45.7,39.7,80,30.38,10.0,WSW,6.9,-,N/A,,Overcast,250,2013-09-20 13:15:00
7:35 AM,45.1,39.2,80,30.39,10.0,West,8.1,-,N/A,,Scattered Clouds,260,2013-09-20 13:35:00
7:55 AM,45.5,40.3,82,30.39,10.0,WSW,6.9,-,N/A,,Clear,250,2013-09-20 13:55:00
8:15 AM,49.8,41.4,73,30.39,10.0,WNW,4.6,-,N/A,,Mostly Cloudy,300,2013-09-20 14:15:00
8:35 AM,50.9,39.0,64,30.38,10.0,WNW,4.6,-,N/A,,Scattered Clouds,290,2013-09-20 14:35:00
8:55 AM,52.0,39.2,62,30.38,10.0,Calm,Calm,-,N/A,,Clear,0,2013-09-20 14:55:00
9:15 AM,52.7,38.7,59,30.37,10.0,Calm,Calm,-,N/A,,Clear,0,2013-09-20 15:15:00
9:35 AM,54.5,39.9,58,30.37,10.0,Calm,Calm,-,N/A,,Clear,0,2013-09-20 15:35:00
9:55 AM,55.8,40.3,56,30.37,10.0,Calm,Calm,-,N/A,,Clear,0,2013-09-20 15:55:00
10:15 AM,56.5,41.0,56,30.37,10.0,Calm,Calm,-,N/A,,Clear,0,2013-09-20 16:15:00
10:35 AM,57.7,41.2,54,30.36,10.0,Calm,Calm,-,N/A,,Clear,0,2013-09-20 16:35:00
10:55 AM,60.1,41.4,50,30.35,10.0,Calm,Calm,-,N/A,,Clear,0,2013-09-20 16:55:00
11:15 AM,60.8,41.0,48,30.35,10.0,East,3.5,-,N/A,,Clear,80,2013-09-20 17:15:00
11:35 AM,61.9,41.9,48,30.34,10.0,SE,4.6,-,N/A,,Clear,140,2013-09-20 17:35:00
11:55 AM,64.0,40.5,42,30.33,10.0,Calm,Calm,-,N/A,,Clear,0,2013-09-20 17:55:00
12:15 PM,65.7,41.0,41,30.32,10.0,SE,5.8,-,N/A,,Clear,140,2013-09-20 18:15:00
12:35 PM,66.6,41.2,40,30.31,10.0,Calm,Calm,-,N/A,,Clear,0,2013-09-20 18:35:00
12:55 PM,69.1,41.2,36,30.30,10.0,ENE,5.8,-,N/A,,Clear,60,2013-09-20 18:55:00
1:15 PM,70.5,39.7,33,30.30,10.0,Calm,Calm,-,N/A,,Clear,0,2013-09-20 19:15:00
1:35 PM,70.3,37.9,31,30.29,10.0,Calm,Calm,-,N/A,,Clear,0,2013-09-20 19:35:00
1:55 PM,72.5,37.4,28,30.28,10.0,ESE,5.8,-,N/A,,Clear,110,2013-09-20 19:55:00
2:15 PM,73.6,34.9,24,30.27,10.0,Calm,Calm,-,N/A,,Clear,0,2013-09-20 20:15:00
2:35 PM,75.4,29.7,19,30.26,10.0,SW,8.1,17.3,N/A,,Clear,220,2013-09-20 20:35:00
2:55 PM,75.6,26.2,16,30.25,10.0,SSW,9.2,-,N/A,,Clear,200,2013-09-20 20:55:00
3:15 PM,75.9,23.7,14,30.25,10.0,SSE,8.1,16.1,N/A,,Clear,160,2013-09-20 21:15:00
3:35 PM,76.1,25.7,15,30.25,10.0,SSE,10.4,-,N/A,,Clear,150,2013-09-20 21:35:00
3:55 PM,76.5,25.2,15,30.24,10.0,South,9.2,19.6,N/A,,Clear,190,2013-09-20 21:55:00
4:15 PM,76.5,24.6,15,30.24,10.0,South,8.1,-,N/A,,Clear,180,2013-09-20 22:15:00
4:35 PM,75.4,22.6,14,30.23,10.0,South,6.9,-,N/A,,Clear,190,2013-09-20 22:35:00
4:55 PM,75.7,24.6,15,30.23,10.0,SSW,8.1,-,N/A,,Clear,200,2013-09-20 22:55:00
5:15 PM,75.2,27.7,17,30.23,10.0,SW,6.9,-,N/A,,Clear,220,2013-09-20 23:15:00
5:35 PM,74.7,29.3,19,30.23,10.0,SSW,8.1,-,N/A,,Clear,200,2013-09-20 23:35:00
5:55 PM,74.1,31.8,21,30.23,10.0,SSW,6.9,-,N/A,,Clear,200,2013-09-20 23:55:00
6:15 PM,72.7,32.7,23,30.23,10.0,South,5.8,-,N/A,,Clear,190,2013-09-21 00:15:00
6:35 PM,70.0,35.6,28,30.23,10.0,South,6.9,-,N/A,,Clear,170,2013-09-21 00:35:00
6:55 PM,65.8,46.9,50,30.24,10.0,SE,8.1,-,N/A,,Clear,130,2013-09-21 00:55:00
7:15 PM,64.4,47.5,54,30.25,10.0,SE,11.5,17.3,N/A,,Clear,140,2013-09-21 01:15:00
7:35 PM,63.5,47.3,56,30.25,10.0,SSE,9.2,-,N/A,,Clear,160,2013-09-21 01:35:00
7:55 PM,61.9,47.5,59,30.27,10.0,SE,10.4,18.4,N/A,,Clear,140,2013-09-21 01:55:00
8:15 PM,61.2,47.7,61,30.27,10.0,SE,12.7,20.7,N/A,,Clear,130,2013-09-21 02:15:00
8:35 PM,60.4,47.8,63,30.29,10.0,SE,11.5,20.7,N/A,,Clear,130,2013-09-21 02:35:00
8:55 PM,60.3,48.0,64,30.29,10.0,ESE,15.0,27.6,N/A,,Clear,120,2013-09-21 02:55:00
9:15 PM,59.4,48.4,67,30.30,10.0,South,5.8,-,N/A,,Clear,170,2013-09-21 03:15:00
9:35 PM,59.0,48.2,67,30.30,10.0,South,6.9,-,N/A,,Clear,170,2013-09-21 03:35:00
9:55 PM,58.3,48.2,69,30.30,10.0,South,6.9,-,N/A,,Clear,170,2013-09-21 03:55:00
10:15 PM,57.9,48.2,70,30.31,10.0,SSE,6.9,-,N/A,,Clear,160,2013-09-21 04:15:00
10:35 PM,56.3,46.2,69,30.31,10.0,South,5.8,-,N/A,,Clear,170,2013-09-21 04:35:00
10:55 PM,55.8,45.0,67,30.31,10.0,SSE,8.1,-,N/A,,Clear,160,2013-09-21 04:55:00
11:15 PM,56.3,46.6,70,30.31,10.0,SSE,6.9,-,N/A,,Clear,160,2013-09-21 05:15:00
11:35 PM,55.6,45.9,70,30.32,10.0,SSE,5.8,-,N/A,,Scattered Clouds,160,2013-09-21 05:35:00
11:55 PM,55.4,46.8,73,30.32,10.0,South,6.9,-,N/A,,Scattered Clouds,180,2013-09-21 05:55:00